Location: *
(51.0333°S, 178.4667°E)
Time: 06:10:45
(UTC+00:00)

CZ-4C R/B - Pass Details

Date: 15 November 2019
Orbit: 650 x 1352 km, 63.4° (Epoch: 05 December)

Event Time Altitude Azimuth Distance (km) Brightness Sun altitude
Rises 10:30:07 0° 226° (SW) 3,616 6.6 -18.3°
Reaches altitude 10° 10:32:56 10° 231° (SW) 2,555 5.6 -18.4°
Maximum altitude 10:38:29 48° 303° (WNW) 1,020 2.5 -18.7°
Enters shadow 10:40:17 33° 353° (N) 1,238 2.6 -18.8°
